Вернуться в каталог

COSMOS 1971

GLONASS

АктивенНавигацияMEO
NORAD 19502·PAYLOAD·🇷🇺 Russia

Запущен Sep 16, 1988 с Baikonur Cosmodrome

Loading…

Ближайшие Пролёты (ближайшие 24 часа)

TLE

СвежийSource: Space-Track

Эпоха: Sep 10, 2026, 10:29 UTC

1 19502U 88085B   26253.43697691 -.00000034  00000-0  00000+0 0  9996
2 19502  65.1809 311.4872 0022472  13.9535 346.3218  2.13101691281177

Отслеживайте COSMOS 1971 в реальном времени с AllMySat

Download on the App Store